Year,Month,Day,Hour,Minute,Value (Times are PST for temperature in C)
2014,06,22,00,00,12.20
2014,06,22,00,01,12.20
2014,06,22,00,02,12.20
2014,06,22,00,03,12.20
2014,06,22,00,04,12.20
2014,06,22,00,05,12.20
2014,06,22,00,06,12.20
2014,06,22,00,07,12.20
2014,06,22,00,08,12.20
2014,06,22,00,09,12.20
2014,06,22,00,10,12.20
2014,06,22,00,11,12.20
2014,06,22,00,12,12.10
2014,06,22,00,13,12.10
2014,06,22,00,14,12.10
2014,06,22,00,15,12.10
2014,06,22,00,16,12.10
2014,06,22,00,17,12.00
2014,06,22,00,18,12.00
2014,06,22,00,19,12.00
2014,06,22,00,20,11.90
2014,06,22,00,21,11.90
2014,06,22,00,22,11.90
2014,06,22,00,23,11.90
2014,06,22,00,24,11.90
2014,06,22,00,25,11.90
2014,06,22,00,26,11.90
2014,06,22,00,27,12.00
2014,06,22,00,28,12.00
2014,06,22,00,29,12.10
2014,06,22,00,30,12.10
2014,06,22,00,31,12.10
2014,06,22,00,32,12.10
2014,06,22,00,33,12.10
2014,06,22,00,34,12.10
2014,06,22,00,35,12.10
2014,06,22,00,36,12.20
2014,06,22,00,37,12.20
2014,06,22,00,38,12.20
2014,06,22,00,39,12.20
2014,06,22,00,40,12.20
2014,06,22,00,41,12.20
2014,06,22,00,42,12.20
2014,06,22,00,43,12.20
2014,06,22,00,44,12.20
2014,06,22,00,45,12.20
2014,06,22,00,46,12.10
2014,06,22,00,47,12.10
2014,06,22,00,48,12.10
2014,06,22,00,49,12.00
2014,06,22,00,50,11.90
2014,06,22,00,51,11.90
2014,06,22,00,52,11.90
2014,06,22,00,53,11.80
2014,06,22,00,54,11.80
2014,06,22,00,55,11.80
2014,06,22,00,56,11.80
2014,06,22,00,57,11.80
2014,06,22,00,58,11.70
2014,06,22,00,59,11.70
2014,06,22,01,00,11.70
2014,06,22,01,01,11.70
2014,06,22,01,02,11.70
2014,06,22,01,03,11.70
2014,06,22,01,04,11.70
2014,06,22,01,05,11.70
2014,06,22,01,06,11.70
2014,06,22,01,07,11.70
2014,06,22,01,08,11.70
2014,06,22,01,09,11.70
2014,06,22,01,10,11.80
2014,06,22,01,11,11.80
2014,06,22,01,12,11.80
2014,06,22,01,13,11.80
2014,06,22,01,14,11.80
2014,06,22,01,15,11.70
2014,06,22,01,16,11.70
2014,06,22,01,17,11.70
2014,06,22,01,18,11.70
2014,06,22,01,19,11.60
2014,06,22,01,20,11.60
2014,06,22,01,21,11.60
2014,06,22,01,22,11.60
2014,06,22,01,23,11.60
2014,06,22,01,24,11.60
2014,06,22,01,25,11.60
2014,06,22,01,26,11.60
2014,06,22,01,27,11.60
2014,06,22,01,28,11.60
2014,06,22,01,29,11.60
2014,06,22,01,30,11.60
2014,06,22,01,31,11.70
2014,06,22,01,32,11.70
2014,06,22,01,33,11.70
2014,06,22,01,34,11.70
2014,06,22,01,35,11.70
2014,06,22,01,36,11.70
2014,06,22,01,37,11.70
2014,06,22,01,38,11.80
2014,06,22,01,39,11.80
2014,06,22,01,40,11.80
2014,06,22,01,41,11.80
2014,06,22,01,42,11.80
2014,06,22,01,43,11.80
2014,06,22,01,44,11.80
2014,06,22,01,45,11.80
2014,06,22,01,46,11.80
2014,06,22,01,47,11.80
2014,06,22,01,48,11.90
2014,06,22,01,49,11.80
2014,06,22,01,50,11.90
2014,06,22,01,51,11.90
2014,06,22,01,52,11.90
2014,06,22,01,53,11.90
2014,06,22,01,54,11.90
2014,06,22,01,55,11.90
2014,06,22,01,56,11.90
2014,06,22,01,57,11.90
2014,06,22,01,58,11.90
2014,06,22,01,59,11.90
2014,06,22,02,00,11.90
2014,06,22,02,01,11.90
2014,06,22,02,02,11.80
2014,06,22,02,03,11.80
2014,06,22,02,04,11.80
2014,06,22,02,05,11.80
2014,06,22,02,06,11.90
2014,06,22,02,07,11.90
2014,06,22,02,08,11.90
2014,06,22,02,09,11.90
2014,06,22,02,10,11.90
2014,06,22,02,11,11.90
2014,06,22,02,12,11.90
2014,06,22,02,13,11.90
2014,06,22,02,14,11.90
2014,06,22,02,15,11.90
2014,06,22,02,16,11.80
2014,06,22,02,17,11.80
2014,06,22,02,18,11.80
2014,06,22,02,19,11.80
2014,06,22,02,20,11.80
2014,06,22,02,21,11.80
2014,06,22,02,22,11.80
2014,06,22,02,23,11.80
2014,06,22,02,24,11.80
2014,06,22,02,25,11.80
2014,06,22,02,26,11.70
2014,06,22,02,27,11.70
2014,06,22,02,28,11.70
2014,06,22,02,29,11.70
2014,06,22,02,30,11.70
2014,06,22,02,31,11.70
2014,06,22,02,32,11.70
2014,06,22,02,33,11.70
2014,06,22,02,34,11.70
2014,06,22,02,35,11.70
2014,06,22,02,36,11.60
2014,06,22,02,37,11.60
2014,06,22,02,38,11.60
2014,06,22,02,39,11.60
2014,06,22,02,40,11.60
2014,06,22,02,41,11.60
2014,06,22,02,42,11.60
2014,06,22,02,43,11.60
2014,06,22,02,44,11.60
2014,06,22,02,45,11.60
2014,06,22,02,46,11.60
2014,06,22,02,47,11.60
2014,06,22,02,48,11.60
2014,06,22,02,49,11.60
2014,06,22,02,50,11.60
2014,06,22,02,51,11.60
2014,06,22,02,52,11.60
2014,06,22,02,53,11.60
2014,06,22,02,54,11.50
2014,06,22,02,55,11.50
2014,06,22,02,56,11.50
2014,06,22,02,57,11.40
2014,06,22,02,58,11.40
2014,06,22,02,59,11.40
2014,06,22,03,00,11.40
2014,06,22,03,01,11.40
2014,06,22,03,02,11.40
2014,06,22,03,03,11.40
2014,06,22,03,04,11.40
2014,06,22,03,05,11.50
2014,06,22,03,06,11.50
2014,06,22,03,07,11.50
2014,06,22,03,08,11.50
2014,06,22,03,09,11.60
2014,06,22,03,10,11.60
2014,06,22,03,11,11.70
2014,06,22,03,12,11.80
2014,06,22,03,13,12.00
2014,06,22,03,14,12.10
2014,06,22,03,15,12.30
2014,06,22,03,16,12.30
2014,06,22,03,17,12.30
2014,06,22,03,18,12.40
2014,06,22,03,19,12.40
2014,06,22,03,20,12.40
2014,06,22,03,21,12.50
2014,06,22,03,22,12.50
2014,06,22,03,23,12.50
2014,06,22,03,24,12.50
2014,06,22,03,25,12.50
2014,06,22,03,26,12.50
2014,06,22,03,27,12.50
2014,06,22,03,28,12.50
2014,06,22,03,29,12.50
2014,06,22,03,30,12.60
2014,06,22,03,31,12.60
2014,06,22,03,32,12.70
2014,06,22,03,33,12.80
2014,06,22,03,34,12.80
2014,06,22,03,35,12.80
2014,06,22,03,36,12.80
2014,06,22,03,37,12.90
2014,06,22,03,38,12.90
2014,06,22,03,39,12.90
2014,06,22,03,40,12.90
2014,06,22,03,41,12.80
2014,06,22,03,42,12.80
2014,06,22,03,43,12.80
2014,06,22,03,44,12.80
2014,06,22,03,45,12.80
2014,06,22,03,46,12.80
2014,06,22,03,47,12.80
2014,06,22,03,48,12.80
2014,06,22,03,49,12.70
2014,06,22,03,50,12.70
2014,06,22,03,51,12.70
2014,06,22,03,52,12.70
2014,06,22,03,53,12.70
2014,06,22,03,54,12.70
2014,06,22,03,55,12.70
2014,06,22,03,56,12.70
2014,06,22,03,57,12.70
2014,06,22,03,58,12.70
2014,06,22,03,59,12.60
2014,06,22,04,00,12.60
2014,06,22,04,01,12.60
2014,06,22,04,02,12.60
2014,06,22,04,03,12.50
2014,06,22,04,04,12.50
2014,06,22,04,05,12.50
2014,06,22,04,06,12.40
2014,06,22,04,07,12.40
2014,06,22,04,08,12.40
2014,06,22,04,09,12.40
2014,06,22,04,10,12.40
2014,06,22,04,11,12.40
2014,06,22,04,12,12.40
2014,06,22,04,13,12.40
2014,06,22,04,14,12.40
2014,06,22,04,15,12.40
2014,06,22,04,16,12.40
2014,06,22,04,17,12.40
2014,06,22,04,18,12.40
2014,06,22,04,19,12.40
2014,06,22,04,20,12.40
2014,06,22,04,21,12.40
2014,06,22,04,22,12.40
2014,06,22,04,23,12.50
2014,06,22,04,24,12.50
2014,06,22,04,25,12.50
2014,06,22,04,26,12.50
2014,06,22,04,27,12.50
2014,06,22,04,28,12.60
2014,06,22,04,29,12.60
2014,06,22,04,30,12.60
2014,06,22,04,31,12.60
2014,06,22,04,32,12.60
2014,06,22,04,33,12.60
2014,06,22,04,34,12.60
2014,06,22,04,35,12.60
2014,06,22,04,36,12.50
2014,06,22,04,37,12.50
2014,06,22,04,38,12.50
2014,06,22,04,39,12.50
2014,06,22,04,40,12.50
2014,06,22,04,41,12.50
2014,06,22,04,42,12.50
2014,06,22,04,43,12.50
2014,06,22,04,44,12.50
2014,06,22,04,45,12.50
2014,06,22,04,46,12.50
2014,06,22,04,47,12.50
2014,06,22,04,48,12.40
2014,06,22,04,49,12.40
2014,06,22,04,50,12.40
2014,06,22,04,51,12.40
2014,06,22,04,52,12.40
2014,06,22,04,53,12.40
2014,06,22,04,54,12.40
2014,06,22,04,55,12.40
2014,06,22,04,56,12.30
2014,06,22,04,57,12.30
2014,06,22,04,58,12.30
2014,06,22,04,59,12.30
2014,06,22,05,00,12.30
2014,06,22,05,01,12.30
2014,06,22,05,02,12.30
2014,06,22,05,03,12.30
2014,06,22,05,04,12.30
2014,06,22,05,05,12.30
2014,06,22,05,06,12.20
2014,06,22,05,07,12.20
2014,06,22,05,08,12.20
2014,06,22,05,09,12.20
2014,06,22,05,10,12.20
2014,06,22,05,11,12.20
2014,06,22,05,12,12.20
2014,06,22,05,13,12.10
2014,06,22,05,14,12.10
2014,06,22,05,15,12.10
2014,06,22,05,16,12.10
2014,06,22,05,17,12.10
2014,06,22,05,18,12.00
2014,06,22,05,19,12.00
2014,06,22,05,20,11.90
2014,06,22,05,21,11.90
2014,06,22,05,22,11.90
2014,06,22,05,23,11.90
2014,06,22,05,24,11.90
2014,06,22,05,25,11.80
2014,06,22,05,26,11.80
2014,06,22,05,27,11.80
2014,06,22,05,28,11.80
2014,06,22,05,29,11.70
2014,06,22,05,30,11.70
2014,06,22,05,31,11.70
2014,06,22,05,32,11.70
2014,06,22,05,33,11.70
2014,06,22,05,34,11.60
2014,06,22,05,35,11.60
2014,06,22,05,36,11.60
2014,06,22,05,37,11.60
2014,06,22,05,38,11.60
2014,06,22,05,39,11.60
2014,06,22,05,40,11.60
2014,06,22,05,41,11.60
2014,06,22,05,42,11.60
2014,06,22,05,43,11.60
2014,06,22,05,44,11.60
2014,06,22,05,45,11.60
2014,06,22,05,46,11.60
2014,06,22,05,47,11.60
2014,06,22,05,48,11.60
2014,06,22,05,49,11.60
2014,06,22,05,50,11.60
2014,06,22,05,51,11.60
2014,06,22,05,52,11.60
2014,06,22,05,53,11.60
2014,06,22,05,54,11.60
2014,06,22,05,55,11.60
2014,06,22,05,56,11.60
2014,06,22,05,57,11.60
2014,06,22,05,58,11.60
2014,06,22,05,59,11.60
2014,06,22,06,00,11.60
2014,06,22,06,01,11.60
2014,06,22,06,02,11.60
2014,06,22,06,03,11.60
2014,06,22,06,04,11.70
2014,06,22,06,05,11.70
2014,06,22,06,06,11.70
2014,06,22,06,07,11.70
2014,06,22,06,08,11.70
2014,06,22,06,09,11.70
2014,06,22,06,10,11.80
2014,06,22,06,11,11.80
2014,06,22,06,12,11.80
2014,06,22,06,13,11.80
2014,06,22,06,14,11.80
2014,06,22,06,15,11.90
2014,06,22,06,16,11.90
2014,06,22,06,17,11.90
2014,06,22,06,18,11.90
2014,06,22,06,19,11.90
2014,06,22,06,20,12.00
2014,06,22,06,21,12.00
2014,06,22,06,22,12.10
2014,06,22,06,23,12.10
2014,06,22,06,24,12.20
2014,06,22,06,25,12.20
2014,06,22,06,26,12.20
2014,06,22,06,27,12.30
2014,06,22,06,28,12.30
2014,06,22,06,29,12.30
2014,06,22,06,30,12.40
2014,06,22,06,31,12.40
2014,06,22,06,32,12.40
2014,06,22,06,33,12.50
2014,06,22,06,34,12.50
2014,06,22,06,35,12.60
2014,06,22,06,36,12.60
2014,06,22,06,37,12.60
2014,06,22,06,38,12.70
2014,06,22,06,39,12.70
2014,06,22,06,40,12.70
2014,06,22,06,41,12.70
2014,06,22,06,42,12.80
2014,06,22,06,43,12.80
2014,06,22,06,44,12.80
2014,06,22,06,45,12.90
2014,06,22,06,46,12.90
2014,06,22,06,47,12.90
2014,06,22,06,48,12.90
2014,06,22,06,49,13.00
2014,06,22,06,50,13.00
2014,06,22,06,51,13.00
2014,06,22,06,52,13.00
2014,06,22,06,53,13.10
2014,06,22,06,54,13.10
2014,06,22,06,55,13.10
2014,06,22,06,56,13.10
2014,06,22,06,57,13.10
2014,06,22,06,58,13.10
2014,06,22,06,59,13.10
2014,06,22,07,00,13.10
2014,06,22,07,01,13.10
2014,06,22,07,02,13.10
2014,06,22,07,03,13.10
2014,06,22,07,04,13.10
2014,06,22,07,05,13.10
2014,06,22,07,06,13.20
2014,06,22,07,07,13.20
2014,06,22,07,08,13.20
2014,06,22,07,09,13.30
2014,06,22,07,10,13.30
2014,06,22,07,11,13.30
2014,06,22,07,12,13.40
2014,06,22,07,13,13.40
2014,06,22,07,14,13.50
2014,06,22,07,15,13.50
2014,06,22,07,16,13.60
2014,06,22,07,17,13.60
2014,06,22,07,18,13.70
2014,06,22,07,19,13.70
2014,06,22,07,20,13.80
2014,06,22,07,21,13.80
2014,06,22,07,22,13.80
2014,06,22,07,23,13.90
2014,06,22,07,24,13.90
2014,06,22,07,25,14.00
2014,06,22,07,26,14.00
2014,06,22,07,27,14.10
2014,06,22,07,28,14.10
2014,06,22,07,29,14.10
2014,06,22,07,30,14.20
2014,06,22,07,31,14.20
2014,06,22,07,32,14.30
2014,06,22,07,33,14.40
2014,06,22,07,34,14.50
2014,06,22,07,35,14.60
2014,06,22,07,36,14.60
2014,06,22,07,37,14.70
2014,06,22,07,38,14.70
2014,06,22,07,39,14.70
2014,06,22,07,40,14.70
2014,06,22,07,41,14.70
2014,06,22,07,42,14.80
2014,06,22,07,43,14.80
2014,06,22,07,44,14.80
2014,06,22,07,45,14.80
2014,06,22,07,46,14.90
2014,06,22,07,47,14.90
2014,06,22,07,48,15.00
2014,06,22,07,49,15.00
2014,06,22,07,50,15.10
2014,06,22,07,51,15.10
2014,06,22,07,52,15.10
2014,06,22,07,53,15.20
2014,06,22,07,54,15.20
2014,06,22,07,55,15.20
2014,06,22,07,56,15.20
2014,06,22,07,57,15.20
2014,06,22,07,58,15.20
2014,06,22,07,59,15.20
2014,06,22,08,00,15.10
2014,06,22,08,01,15.10
2014,06,22,08,02,15.10
2014,06,22,08,03,15.20
2014,06,22,08,04,15.20
2014,06,22,08,05,15.20
2014,06,22,08,06,15.20
2014,06,22,08,07,15.20
2014,06,22,08,08,15.30
2014,06,22,08,09,15.30
2014,06,22,08,10,15.40
2014,06,22,08,11,15.40
2014,06,22,08,12,15.50
2014,06,22,08,13,15.50
2014,06,22,08,14,15.60
2014,06,22,08,15,15.60
2014,06,22,08,16,15.60
2014,06,22,08,17,15.60
2014,06,22,08,18,15.60
2014,06,22,08,19,15.70
2014,06,22,08,20,15.70
2014,06,22,08,21,15.70
2014,06,22,08,22,15.70
2014,06,22,08,23,15.70
2014,06,22,08,24,15.70
2014,06,22,08,25,15.70
2014,06,22,08,26,15.80
2014,06,22,08,27,15.80
2014,06,22,08,28,15.80
2014,06,22,08,29,15.80
2014,06,22,08,30,15.80
2014,06,22,08,31,15.80
2014,06,22,08,32,15.90
2014,06,22,08,33,15.90
2014,06,22,08,34,16.00
2014,06,22,08,35,16.00
2014,06,22,08,36,16.10
2014,06,22,08,37,16.10
2014,06,22,08,38,16.10
2014,06,22,08,39,16.10
2014,06,22,08,40,16.10
2014,06,22,08,41,16.10
2014,06,22,08,42,16.20
2014,06,22,08,43,16.20
2014,06,22,08,44,16.20
2014,06,22,08,45,16.30
2014,06,22,08,46,16.30
2014,06,22,08,47,16.40
2014,06,22,08,48,16.50
2014,06,22,08,49,16.60
2014,06,22,08,50,16.70
2014,06,22,08,51,16.80
2014,06,22,08,52,16.80
2014,06,22,08,53,16.80
2014,06,22,08,54,16.80
2014,06,22,08,55,16.80
2014,06,22,08,56,16.90
2014,06,22,08,57,17.00
2014,06,22,08,58,17.10
2014,06,22,08,59,17.20
2014,06,22,09,00,17.30
2014,06,22,09,01,17.40
2014,06,22,09,02,17.60
2014,06,22,09,03,17.70
2014,06,22,09,04,17.80
2014,06,22,09,05,17.90
2014,06,22,09,06,18.00
2014,06,22,09,07,18.00
2014,06,22,09,08,18.10
2014,06,22,09,09,18.10
2014,06,22,09,10,18.10
2014,06,22,09,11,18.10
2014,06,22,09,12,18.10
2014,06,22,09,13,18.20
2014,06,22,09,14,18.20
2014,06,22,09,15,18.20
2014,06,22,09,16,18.20
2014,06,22,09,17,18.20
2014,06,22,09,18,18.10
2014,06,22,09,19,18.10
2014,06,22,09,20,18.10
2014,06,22,09,21,18.10
2014,06,22,09,22,18.10
2014,06,22,09,23,18.10
2014,06,22,09,24,18.10
2014,06,22,09,25,18.10
2014,06,22,09,26,18.10
2014,06,22,09,27,18.10
2014,06,22,09,28,18.10
2014,06,22,09,29,18.10
2014,06,22,09,30,18.10
2014,06,22,09,31,18.10
2014,06,22,09,32,18.10
2014,06,22,09,33,18.10
2014,06,22,09,34,18.10
2014,06,22,09,35,18.20
2014,06,22,09,36,18.20
2014,06,22,09,37,18.30
2014,06,22,09,38,18.30
2014,06,22,09,39,18.30
2014,06,22,09,40,18.30
2014,06,22,09,41,18.30
2014,06,22,09,42,18.30
2014,06,22,09,43,18.20
2014,06,22,09,44,18.10
2014,06,22,09,45,18.10
2014,06,22,09,46,18.00
2014,06,22,09,47,17.90
2014,06,22,09,48,17.90
2014,06,22,09,49,17.80
2014,06,22,09,50,17.80
2014,06,22,09,51,17.80
2014,06,22,09,52,17.70
2014,06,22,09,53,17.70
2014,06,22,09,54,17.60
2014,06,22,09,55,17.50
2014,06,22,09,56,17.50
2014,06,22,09,57,17.40
2014,06,22,09,58,17.30
2014,06,22,09,59,17.30
2014,06,22,10,00,17.20
2014,06,22,10,01,17.20
2014,06,22,10,02,17.20
2014,06,22,10,03,17.20
2014,06,22,10,04,17.10
2014,06,22,10,05,17.10
2014,06,22,10,06,17.10
2014,06,22,10,07,17.10
2014,06,22,10,08,17.20
2014,06,22,10,09,17.20
2014,06,22,10,10,17.20
2014,06,22,10,11,17.20
2014,06,22,10,12,17.20
2014,06,22,10,13,17.20
2014,06,22,10,14,17.20
2014,06,22,10,15,17.30
2014,06,22,10,16,17.30
2014,06,22,10,17,17.30
2014,06,22,10,18,17.40
2014,06,22,10,19,17.40
2014,06,22,10,20,17.40
2014,06,22,10,21,17.40
2014,06,22,10,22,17.40
2014,06,22,10,23,17.30
2014,06,22,10,24,17.30
2014,06,22,10,25,17.20
2014,06,22,10,26,17.20
2014,06,22,10,27,17.20
2014,06,22,10,28,17.20
2014,06,22,10,29,17.20
2014,06,22,10,30,17.20
2014,06,22,10,31,17.30
2014,06,22,10,32,17.30
2014,06,22,10,33,17.30
2014,06,22,10,34,17.40
2014,06,22,10,35,17.40
2014,06,22,10,36,17.30
2014,06,22,10,37,17.40
2014,06,22,10,38,17.40
2014,06,22,10,39,17.40
2014,06,22,10,40,17.40
2014,06,22,10,41,17.40
2014,06,22,10,42,17.50
2014,06,22,10,43,17.60
2014,06,22,10,44,17.70
2014,06,22,10,45,17.70
2014,06,22,10,46,17.80
2014,06,22,10,47,17.80
2014,06,22,10,48,17.80
2014,06,22,10,49,17.90
2014,06,22,10,50,17.90
2014,06,22,10,51,17.80
2014,06,22,10,52,17.80
2014,06,22,10,53,17.80
2014,06,22,10,54,17.80
2014,06,22,10,55,17.80
2014,06,22,10,56,17.80
2014,06,22,10,57,17.80
2014,06,22,10,58,17.80
2014,06,22,10,59,17.80
2014,06,22,11,00,17.80
2014,06,22,11,01,17.80
2014,06,22,11,02,17.90
2014,06,22,11,03,17.90
2014,06,22,11,04,17.90
2014,06,22,11,05,17.90
2014,06,22,11,06,17.90
2014,06,22,11,07,17.90
2014,06,22,11,08,17.90
2014,06,22,11,09,17.90
2014,06,22,11,10,17.90
2014,06,22,11,11,18.00
2014,06,22,11,12,18.10
2014,06,22,11,13,18.10
2014,06,22,11,14,18.20
2014,06,22,11,15,18.20
2014,06,22,11,16,18.20
2014,06,22,11,17,18.10
2014,06,22,11,18,18.10
2014,06,22,11,19,18.10
2014,06,22,11,20,18.10
2014,06,22,11,21,18.00
2014,06,22,11,22,18.00
2014,06,22,11,23,17.90
2014,06,22,11,24,17.90
2014,06,22,11,25,17.90
2014,06,22,11,26,17.80
2014,06,22,11,27,17.80
2014,06,22,11,28,17.70
2014,06,22,11,29,17.70
2014,06,22,11,30,17.60
2014,06,22,11,31,17.60
2014,06,22,11,32,17.60
2014,06,22,11,33,17.60
2014,06,22,11,34,17.70
2014,06,22,11,35,17.80
2014,06,22,11,36,17.80
2014,06,22,11,37,17.90
2014,06,22,11,38,18.00
2014,06,22,11,39,18.10
2014,06,22,11,40,18.10
2014,06,22,11,41,18.20
2014,06,22,11,42,18.20
2014,06,22,11,43,18.30
2014,06,22,11,44,18.40
2014,06,22,11,45,18.40
2014,06,22,11,46,18.50
2014,06,22,11,47,18.50
2014,06,22,11,48,18.50
2014,06,22,11,49,18.50
2014,06,22,11,50,18.50
2014,06,22,11,51,18.50
2014,06,22,11,52,18.60
2014,06,22,11,53,18.70
2014,06,22,11,54,18.80
2014,06,22,11,55,18.90
2014,06,22,11,56,19.10
2014,06,22,11,57,19.20
2014,06,22,11,58,19.30
2014,06,22,11,59,19.40
2014,06,22,12,00,19.50
2014,06,22,12,01,19.50
2014,06,22,12,02,19.50
2014,06,22,12,03,19.50
2014,06,22,12,04,19.60
2014,06,22,12,05,19.50
2014,06,22,12,06,19.50
2014,06,22,12,07,19.40
2014,06,22,12,08,19.30
2014,06,22,12,09,19.30
2014,06,22,12,10,19.40
2014,06,22,12,11,19.40
2014,06,22,12,12,19.60
2014,06,22,12,13,19.70
2014,06,22,12,14,19.70
2014,06,22,12,15,19.70
2014,06,22,12,16,19.70
2014,06,22,12,17,19.60
2014,06,22,12,18,19.50
2014,06,22,12,19,19.40
2014,06,22,12,20,19.30
2014,06,22,12,21,19.30
2014,06,22,12,22,19.30
2014,06,22,12,23,19.30
2014,06,22,12,24,19.20
2014,06,22,12,25,19.20
2014,06,22,12,26,19.20
2014,06,22,12,27,19.00
2014,06,22,12,28,18.90
2014,06,22,12,29,18.80
2014,06,22,12,30,18.80
2014,06,22,12,31,18.80
2014,06,22,12,32,18.80
2014,06,22,12,33,18.80
2014,06,22,12,34,18.70
2014,06,22,12,35,18.70
2014,06,22,12,36,18.60
2014,06,22,12,37,18.60
2014,06,22,12,38,18.60
2014,06,22,12,39,18.60
2014,06,22,12,40,18.60
2014,06,22,12,41,18.60
2014,06,22,12,42,18.60
2014,06,22,12,43,18.70
2014,06,22,12,44,18.90
2014,06,22,12,45,19.00
2014,06,22,12,46,19.20
2014,06,22,12,47,19.30
2014,06,22,12,48,19.40
2014,06,22,12,49,19.50
2014,06,22,12,50,19.60
2014,06,22,12,51,19.60
2014,06,22,12,52,19.70
2014,06,22,12,53,19.70
2014,06,22,12,54,19.60
2014,06,22,12,55,19.50
2014,06,22,12,56,19.40
2014,06,22,12,57,19.30
2014,06,22,12,58,19.20
2014,06,22,12,59,19.10
2014,06,22,13,00,19.10
2014,06,22,13,01,19.10
2014,06,22,13,02,19.00
2014,06,22,13,03,19.00
2014,06,22,13,04,19.00
2014,06,22,13,05,19.00
2014,06,22,13,06,19.10
2014,06,22,13,07,19.10
2014,06,22,13,08,19.20
2014,06,22,13,09,19.30
2014,06,22,13,10,19.30
2014,06,22,13,11,19.40
2014,06,22,13,12,19.50
2014,06,22,13,13,19.50
2014,06,22,13,14,19.40
2014,06,22,13,15,19.40
2014,06,22,13,16,19.40
2014,06,22,13,17,19.40
2014,06,22,13,18,19.40
2014,06,22,13,19,19.40
2014,06,22,13,20,19.40
2014,06,22,13,21,19.40
2014,06,22,13,22,19.40
2014,06,22,13,23,19.50
2014,06,22,13,24,19.50
2014,06,22,13,25,19.50
2014,06,22,13,26,19.60
2014,06,22,13,27,19.70
2014,06,22,13,28,19.80
2014,06,22,13,29,19.90
2014,06,22,13,30,20.00
2014,06,22,13,31,20.10
2014,06,22,13,32,20.20
2014,06,22,13,33,20.30
2014,06,22,13,34,20.30
2014,06,22,13,35,20.30
2014,06,22,13,36,20.30
2014,06,22,13,37,20.30
2014,06,22,13,38,20.30
2014,06,22,13,39,20.30
2014,06,22,13,40,20.30
2014,06,22,13,41,20.30
2014,06,22,13,42,20.30
2014,06,22,13,43,20.30
2014,06,22,13,44,20.30
2014,06,22,13,45,20.30
2014,06,22,13,46,20.30
2014,06,22,13,47,20.30
2014,06,22,13,48,20.30
2014,06,22,13,49,20.20
2014,06,22,13,50,20.20
2014,06,22,13,51,20.20
2014,06,22,13,52,20.20
2014,06,22,13,53,20.30
2014,06,22,13,54,20.30
2014,06,22,13,55,20.30
2014,06,22,13,56,20.30
2014,06,22,13,57,20.30
2014,06,22,13,58,20.30
2014,06,22,13,59,20.30
2014,06,22,14,00,20.30
2014,06,22,14,01,20.40
2014,06,22,14,02,20.50
2014,06,22,14,03,20.60
2014,06,22,14,04,20.70
2014,06,22,14,05,20.70
2014,06,22,14,06,20.70
2014,06,22,14,07,20.70
2014,06,22,14,08,20.70
2014,06,22,14,09,20.70
2014,06,22,14,10,20.60
2014,06,22,14,11,20.60
2014,06,22,14,12,20.60
2014,06,22,14,13,20.60
2014,06,22,14,14,20.50
2014,06,22,14,15,20.50
2014,06,22,14,16,20.50
2014,06,22,14,17,20.50
2014,06,22,14,18,20.50
2014,06,22,14,19,20.60
2014,06,22,14,20,20.60
2014,06,22,14,21,20.60
2014,06,22,14,22,20.70
2014,06,22,14,23,20.80
2014,06,22,14,24,20.80
2014,06,22,14,25,20.80
2014,06,22,14,26,20.80
2014,06,22,14,27,20.70
2014,06,22,14,28,20.70
2014,06,22,14,29,20.70
2014,06,22,14,30,20.70
2014,06,22,14,31,20.70
2014,06,22,14,32,20.70
2014,06,22,14,33,20.70
2014,06,22,14,34,20.70
2014,06,22,14,35,20.70
2014,06,22,14,36,20.70
2014,06,22,14,37,20.70
2014,06,22,14,38,20.60
2014,06,22,14,39,20.60
2014,06,22,14,40,20.60
2014,06,22,14,41,20.60
2014,06,22,14,42,20.50
2014,06,22,14,43,20.50
2014,06,22,14,44,20.50
2014,06,22,14,45,20.40
2014,06,22,14,46,20.40
2014,06,22,14,47,20.50
2014,06,22,14,48,20.60
2014,06,22,14,49,20.60
2014,06,22,14,50,20.70
2014,06,22,14,51,20.80
2014,06,22,14,52,20.80
2014,06,22,14,53,20.90
2014,06,22,14,54,20.90
2014,06,22,14,55,20.80
2014,06,22,14,56,20.80
2014,06,22,14,57,20.80
2014,06,22,14,58,20.80
2014,06,22,14,59,20.80
2014,06,22,15,00,20.90
2014,06,22,15,01,20.90
2014,06,22,15,02,21.00
2014,06,22,15,03,21.10
2014,06,22,15,04,21.10
2014,06,22,15,05,21.10
2014,06,22,15,06,21.10
2014,06,22,15,07,21.10
2014,06,22,15,08,21.10
2014,06,22,15,09,21.10
2014,06,22,15,10,21.10
2014,06,22,15,11,21.20
2014,06,22,15,12,21.20
2014,06,22,15,13,21.20
2014,06,22,15,14,21.30
2014,06,22,15,15,21.30
2014,06,22,15,16,21.30
2014,06,22,15,17,21.30
2014,06,22,15,18,21.30
2014,06,22,15,19,21.30
2014,06,22,15,20,21.40
2014,06,22,15,21,21.40
2014,06,22,15,22,21.40
2014,06,22,15,23,21.40
2014,06,22,15,24,21.40
2014,06,22,15,25,21.40
2014,06,22,15,26,21.40
2014,06,22,15,27,21.50
2014,06,22,15,28,21.50
2014,06,22,15,29,21.60
2014,06,22,15,30,21.60
2014,06,22,15,31,21.70
2014,06,22,15,32,21.70
2014,06,22,15,33,21.70
2014,06,22,15,34,21.70
2014,06,22,15,35,21.70
2014,06,22,15,36,21.70
2014,06,22,15,37,21.70
2014,06,22,15,38,21.80
2014,06,22,15,39,21.90
2014,06,22,15,40,21.90
2014,06,22,15,41,21.90
2014,06,22,15,42,21.90
2014,06,22,15,43,21.90
2014,06,22,15,44,22.00
2014,06,22,15,45,22.00
2014,06,22,15,46,21.90
2014,06,22,15,47,21.90
2014,06,22,15,48,22.00
2014,06,22,15,49,22.00
2014,06,22,15,50,22.10
2014,06,22,15,51,22.10
2014,06,22,15,52,22.00
2014,06,22,15,53,22.00
2014,06,22,15,54,22.00
2014,06,22,15,55,22.00
2014,06,22,15,56,21.90
2014,06,22,15,57,21.80
2014,06,22,15,58,21.80
2014,06,22,15,59,21.80
2014,06,22,16,00,21.80
2014,06,22,16,01,21.80
2014,06,22,16,02,21.90
2014,06,22,16,03,21.90
2014,06,22,16,04,21.90
2014,06,22,16,05,21.90
2014,06,22,16,06,21.80
2014,06,22,16,07,21.80
2014,06,22,16,08,21.90
2014,06,22,16,09,21.90
2014,06,22,16,10,21.90
2014,06,22,16,11,22.00
2014,06,22,16,12,22.00
2014,06,22,16,13,21.90
2014,06,22,16,14,21.90
2014,06,22,16,15,21.90
2014,06,22,16,16,21.90
2014,06,22,16,17,21.90
2014,06,22,16,18,22.00
2014,06,22,16,19,22.00
2014,06,22,16,20,22.00
2014,06,22,16,21,21.90
2014,06,22,16,22,21.80
2014,06,22,16,23,21.80
2014,06,22,16,24,21.90
2014,06,22,16,25,21.90
2014,06,22,16,26,21.90
2014,06,22,16,27,21.90
2014,06,22,16,28,22.00
2014,06,22,16,29,22.00
2014,06,22,16,30,21.90
2014,06,22,16,31,21.90
2014,06,22,16,32,21.80
2014,06,22,16,33,21.80
2014,06,22,16,34,21.80
2014,06,22,16,35,21.80
2014,06,22,16,36,21.80
2014,06,22,16,37,21.90
2014,06,22,16,38,21.90
2014,06,22,16,39,22.00
2014,06,22,16,40,22.10
2014,06,22,16,41,22.10
2014,06,22,16,42,22.10
2014,06,22,16,43,22.10
2014,06,22,16,44,22.10
2014,06,22,16,45,22.20
2014,06,22,16,46,22.20
2014,06,22,16,47,22.20
2014,06,22,16,48,22.20
2014,06,22,16,49,22.20
2014,06,22,16,50,22.20
2014,06,22,16,51,22.20
2014,06,22,16,52,22.20
2014,06,22,16,53,22.20
2014,06,22,16,54,22.30
2014,06,22,16,55,22.30
2014,06,22,16,56,22.30
2014,06,22,16,57,22.30
2014,06,22,16,58,22.30
2014,06,22,16,59,22.30
2014,06,22,17,00,22.30
2014,06,22,17,01,22.30
2014,06,22,17,02,22.30
2014,06,22,17,03,22.30
2014,06,22,17,04,22.20
2014,06,22,17,05,22.20
2014,06,22,17,06,22.20
2014,06,22,17,07,22.20
2014,06,22,17,08,22.10
2014,06,22,17,09,22.10
2014,06,22,17,10,22.00
2014,06,22,17,11,22.00
2014,06,22,17,12,21.90
2014,06,22,17,13,21.90
2014,06,22,17,14,21.90
2014,06,22,17,15,21.90
2014,06,22,17,16,21.90
2014,06,22,17,17,21.90
2014,06,22,17,18,21.90
2014,06,22,17,19,22.00